Location: Czu?�w
(50.1404°N, 18.9919°E)
Time: 14:49:48
(UTC+00:00)

USA 305 - Pass Details

Date: 27 October 2020
Orbit: 569 x 577 km, 54.0° (Epoch: 22 November)

Event Time Altitude Azimuth Distance (km) Brightness Sun altitude
Rises 16:06:30 0° 288° (WNW) 2,789 7.6 -6.6°
Reaches altitude 10° 16:08:48 10° 292° (WNW) 1,888 6.5 -7.0°
Maximum altitude 16:13:03 57° 12° (NNE) 681 3.2 -7.7°
Enters shadow 16:17:14 10° 92° (E) 1,870 4.9 -8.3°
